Time,TemperatureF,DewpointF,PressureIn,WindDirection,WindDirectionDegrees,WindSpeedMPH,WindSpeedGustMPH,Humidity,HourlyPrecipIn,Conditions,Clouds,dailyrainin,SoftwareType,DateUTC
2013-06-25 00:04:00,82.0,72.5,29.94,South,182,2.0,10.0,73,0.00,,,0.00,meteohub,2013-06-25 05:04:00,
2013-06-25 00:09:00,82.0,72.5,29.94,SSW,192,5.0,12.0,73,0.00,,,0.00,meteohub,2013-06-25 05:09:00,
2013-06-25 00:14:00,81.9,72.7,29.95,SE,133,3.0,12.0,74,0.00,,,0.00,meteohub,2013-06-25 05:14:00,
2013-06-25 00:19:00,81.7,72.5,29.95,SSE,156,1.0,12.0,74,0.00,,,0.00,meteohub,2013-06-25 05:19:00,
2013-06-25 00:24:00,81.7,72.5,29.95,SSE,157,1.0,7.0,74,0.00,,,0.00,meteohub,2013-06-25 05:24:00,
2013-06-25 00:29:00,81.3,72.3,29.95,South,174,4.0,7.0,74,0.00,,,0.00,meteohub,2013-06-25 05:29:00,
2013-06-25 00:34:00,81.3,72.7,29.95,SE,127,6.0,9.0,75,0.00,,,0.00,meteohub,2013-06-25 05:34:00,
2013-06-25 00:39:00,81.1,72.5,29.95,SSE,164,1.0,9.0,75,0.00,,,0.00,meteohub,2013-06-25 05:39:00,
2013-06-25 00:44:00,81.1,72.5,29.96,SW,217,3.0,8.0,75,0.00,,,0.00,meteohub,2013-06-25 05:44:00,
2013-06-25 00:49:00,81.0,72.3,29.96,South,177,1.0,7.0,75,0.00,,,0.00,meteohub,2013-06-25 05:49:00,
2013-06-25 00:54:00,81.0,72.3,29.96,SE,144,3.0,7.0,75,0.00,,,0.00,meteohub,2013-06-25 05:54:00,
2013-06-25 00:59:00,80.8,72.5,29.96,SSW,199,3.0,6.0,76,0.00,,,0.00,meteohub,2013-06-25 05:59:00,
2013-06-25 01:04:00,80.6,72.3,29.95,SE,141,2.0,5.0,76,0.00,,,0.00,meteohub,2013-06-25 06:04:00,
2013-06-25 01:09:00,80.4,72.1,29.95,SSE,155,2.0,7.0,76,0.00,,,0.00,meteohub,2013-06-25 06:09:00,
2013-06-25 01:14:00,80.2,72.0,29.95,South,175,3.0,7.0,76,0.00,,,0.00,meteohub,2013-06-25 06:14:00,
2013-06-25 01:19:00,80.2,72.0,29.96,SSE,153,1.0,7.0,76,0.00,,,0.00,meteohub,2013-06-25 06:19:00,
2013-06-25 01:24:00,80.2,72.3,29.95,South,177,2.0,7.0,77,0.00,,,0.00,meteohub,2013-06-25 06:24:00,
2013-06-25 01:29:00,80.1,72.1,29.95,SE,137,2.0,7.0,77,0.00,,,0.00,meteohub,2013-06-25 06:29:00,
2013-06-25 01:34:00,80.1,72.1,29.95,SSE,150,2.0,7.0,77,0.00,,,0.00,meteohub,2013-06-25 06:34:00,
2013-06-25 01:39:00,79.9,72.0,29.95,SSW,211,2.0,7.0,77,0.00,,,0.00,meteohub,2013-06-25 06:39:00,
2013-06-25 01:44:00,79.9,72.3,29.95,SSE,150,5.0,5.0,78,0.00,,,0.00,meteohub,2013-06-25 06:44:00,
2013-06-25 01:49:00,79.7,72.1,29.95,SSE,165,2.0,8.0,78,0.00,,,0.00,meteohub,2013-06-25 06:49:00,
2013-06-25 01:54:00,79.5,72.1,29.95,SE,130,1.0,8.0,78,0.00,,,0.00,meteohub,2013-06-25 06:54:00,
2013-06-25 01:59:00,79.5,72.5,29.95,ESE,120,4.0,8.0,79,0.00,,,0.00,meteohub,2013-06-25 06:59:00,
2013-06-25 02:04:00,79.5,72.5,29.95,SSE,168,5.0,12.0,79,0.00,,,0.00,meteohub,2013-06-25 07:04:00,
2013-06-25 02:09:00,79.3,72.3,29.95,SE,139,3.0,12.0,79,0.00,,,0.00,meteohub,2013-06-25 07:09:00,
2013-06-25 02:14:00,79.3,72.3,29.95,SE,128,4.0,12.0,79,0.00,,,0.00,meteohub,2013-06-25 07:14:00,
2013-06-25 02:19:00,79.2,72.5,29.95,SSE,155,2.0,9.0,80,0.00,,,0.00,meteohub,2013-06-25 07:19:00,
2013-06-25 02:24:00,79.2,72.5,29.95,ESE,111,1.0,7.0,80,0.00,,,0.00,meteohub,2013-06-25 07:24:00,
2013-06-25 02:29:00,79.0,72.3,29.94,SSW,203,3.0,7.0,80,0.00,,,0.00,meteohub,2013-06-25 07:29:00,
2013-06-25 02:34:00,79.0,72.3,29.95,South,175,0.0,6.0,80,0.00,,,0.00,meteohub,2013-06-25 07:34:00,
2013-06-25 02:39:00,78.8,72.5,29.94,SSE,154,4.0,6.0,81,0.00,,,0.00,meteohub,2013-06-25 07:39:00,
2013-06-25 02:44:00,78.6,72.3,29.94,SSE,164,1.0,7.0,81,0.00,,,0.00,meteohub,2013-06-25 07:44:00,
2013-06-25 02:50:00,78.4,72.1,29.94,East,98,0.0,7.0,81,0.00,,,0.00,meteohub,2013-06-25 07:50:00,
2013-06-25 02:55:00,78.4,72.5,29.95,ESE,111,1.0,6.0,82,0.00,,,0.00,meteohub,2013-06-25 07:55:00,
2013-06-25 03:00:00,78.4,72.5,29.94,SSE,160,4.0,7.0,82,0.00,,,0.00,meteohub,2013-06-25 08:00:00,
2013-06-25 03:05:00,78.3,72.3,29.94,SSE,150,1.0,7.0,82,0.00,,,0.00,meteohub,2013-06-25 08:05:00,
2013-06-25 03:10:00,78.3,72.3,29.94,SSW,202,1.0,7.0,82,0.00,,,0.00,meteohub,2013-06-25 08:10:00,
2013-06-25 03:15:00,78.1,72.5,29.94,SSE,164,1.0,7.0,83,0.00,,,0.00,meteohub,2013-06-25 08:15:00,
2013-06-25 03:20:00,78.1,72.5,29.94,South,169,1.0,7.0,83,0.00,,,0.00,meteohub,2013-06-25 08:20:00,
2013-06-25 03:25:00,78.1,72.5,29.94,South,182,0.0,7.0,83,0.00,,,0.00,meteohub,2013-06-25 08:25:00,
2013-06-25 03:30:00,77.9,72.7,29.93,ESE,117,2.0,9.0,84,0.00,,,0.00,meteohub,2013-06-25 08:30:00,
2013-06-25 03:35:00,77.7,72.5,29.93,South,191,3.0,9.0,84,0.00,,,0.00,meteohub,2013-06-25 08:35:00,
2013-06-25 03:40:00,77.7,72.5,29.93,SW,214,4.0,9.0,84,0.00,,,0.00,meteohub,2013-06-25 08:40:00,
2013-06-25 03:45:00,77.7,72.5,29.93,East,89,3.0,9.0,84,0.00,,,0.00,meteohub,2013-06-25 08:45:00,
2013-06-25 03:50:00,77.7,72.9,29.93,ESE,103,0.0,9.0,85,0.00,,,0.00,meteohub,2013-06-25 08:50:00,
2013-06-25 03:55:00,77.5,72.7,29.93,ESE,112,0.0,9.0,85,0.00,,,0.00,meteohub,2013-06-25 08:55:00,
2013-06-25 04:00:00,77.5,72.7,29.93,South,180,1.0,8.0,85,0.00,,,0.00,meteohub,2013-06-25 09:00:00,
2013-06-25 04:05:00,77.5,72.7,29.93,SE,132,4.0,8.0,85,0.00,,,0.00,meteohub,2013-06-25 09:05:00,
2013-06-25 04:10:00,77.5,72.7,29.93,South,178,1.0,8.0,85,0.00,,,0.00,meteohub,2013-06-25 09:10:00,
2013-06-25 04:15:00,77.5,73.0,29.93,SW,229,3.0,7.0,86,0.00,,,0.00,meteohub,2013-06-25 09:15:00,
2013-06-25 04:20:00,77.4,72.9,29.93,South,170,1.0,7.0,86,0.00,,,0.00,meteohub,2013-06-25 09:20:00,
2013-06-25 04:25:00,77.4,72.9,29.93,South,170,2.0,7.0,86,0.00,,,0.00,meteohub,2013-06-25 09:25:00,
2013-06-25 04:30:00,77.4,72.9,29.94,SE,128,5.0,7.0,86,0.00,,,0.00,meteohub,2013-06-25 09:30:00,
2013-06-25 04:35:00,77.5,73.0,29.93,SSE,153,3.0,9.0,86,0.00,,,0.00,meteohub,2013-06-25 09:35:00,
2013-06-25 04:40:00,77.5,73.0,29.94,East,88,1.0,12.0,86,0.00,,,0.00,meteohub,2013-06-25 09:40:00,
2013-06-25 04:45:00,77.4,72.9,29.94,South,169,2.0,8.0,86,0.00,,,0.00,meteohub,2013-06-25 09:45:00,
2013-06-25 04:50:00,77.4,72.9,29.94,SSE,154,1.0,8.0,86,0.00,,,0.00,meteohub,2013-06-25 09:50:00,
2013-06-25 04:55:00,77.4,72.9,29.94,SSW,200,4.0,7.0,86,0.00,,,0.00,meteohub,2013-06-25 09:55:00,
2013-06-25 05:00:00,77.2,73.0,29.94,SSE,165,1.0,8.0,87,0.00,,,0.00,meteohub,2013-06-25 10:00:00,
2013-06-25 05:05:00,77.2,73.0,29.94,SSW,208,4.0,8.0,87,0.00,,,0.00,meteohub,2013-06-25 10:05:00,
2013-06-25 05:10:00,77.0,72.9,29.94,SW,216,0.0,10.0,87,0.00,,,0.00,meteohub,2013-06-25 10:10:00,
2013-06-25 05:15:00,77.0,72.9,29.94,South,171,0.0,10.0,87,0.00,,,0.00,meteohub,2013-06-25 10:15:00,
2013-06-25 05:20:00,76.8,72.7,29.94,SSE,167,2.0,10.0,87,0.00,,,0.00,meteohub,2013-06-25 10:20:00,
2013-06-25 05:25:00,76.8,73.0,29.94,SSW,200,3.0,8.0,88,0.00,,,0.00,meteohub,2013-06-25 10:25:00,
2013-06-25 05:30:00,76.8,73.0,29.94,SSE,165,1.0,8.0,88,0.00,,,0.00,meteohub,2013-06-25 10:30:00,
2013-06-25 05:35:00,76.6,72.9,29.94,South,173,2.0,8.0,88,0.00,,,0.00,meteohub,2013-06-25 10:35:00,
2013-06-25 05:40:00,76.6,72.9,29.95,SSW,198,3.0,8.0,88,0.00,,,0.00,meteohub,2013-06-25 10:40:00,
2013-06-25 05:45:00,76.6,73.2,29.95,WSW,249,2.0,10.0,89,0.00,,,0.00,meteohub,2013-06-25 10:45:00,
2013-06-25 05:51:00,76.6,73.2,29.95,West,262,4.0,10.0,89,0.00,,,0.00,meteohub,2013-06-25 10:51:00,
2013-06-25 05:56:00,76.6,73.2,29.94,SSW,206,3.0,10.0,89,0.00,,,0.00,meteohub,2013-06-25 10:56:00,
2013-06-25 06:01:00,76.6,73.2,29.95,SSW,206,1.0,8.0,89,0.00,,,0.00,meteohub,2013-06-25 11:01:00,
2013-06-25 06:06:00,76.6,73.2,29.95,South,184,1.0,9.0,89,0.00,,,0.00,meteohub,2013-06-25 11:06:00,
2013-06-25 06:11:00,76.5,73.0,29.95,SSE,151,1.0,9.0,89,0.00,,,0.00,meteohub,2013-06-25 11:11:00,
2013-06-25 06:16:00,76.5,73.0,29.95,WSW,240,1.0,9.0,89,0.00,,,0.00,meteohub,2013-06-25 11:16:00,
2013-06-25 06:21:00,76.5,73.0,29.95,SE,133,1.0,7.0,89,0.00,,,0.00,meteohub,2013-06-25 11:21:00,
2013-06-25 06:26:00,76.5,73.0,29.95,SSW,202,3.0,7.0,89,0.00,,,0.00,meteohub,2013-06-25 11:26:00,
2013-06-25 06:31:00,76.5,73.0,29.95,South,190,5.0,7.0,89,0.00,,,0.00,meteohub,2013-06-25 11:31:00,
2013-06-25 06:36:00,76.5,73.2,29.96,SE,140,2.0,11.0,90,0.00,,,0.00,meteohub,2013-06-25 11:36:00,
2013-06-25 06:41:00,76.5,73.2,29.96,SW,221,4.0,11.0,90,0.00,,,0.00,meteohub,2013-06-25 11:41:00,
2013-06-25 06:46:00,76.5,73.2,29.96,South,184,3.0,11.0,90,0.00,,,0.00,meteohub,2013-06-25 11:46:00,
2013-06-25 06:51:00,76.5,73.2,29.96,SSE,167,2.0,8.0,90,0.00,,,0.00,meteohub,2013-06-25 11:51:00,
2013-06-25 06:56:00,76.5,73.2,29.96,South,184,2.0,8.0,90,0.00,,,0.00,meteohub,2013-06-25 11:56:00,
2013-06-25 07:01:00,76.5,73.2,29.96,South,185,0.0,8.0,90,0.00,,,0.00,meteohub,2013-06-25 12:01:00,
2013-06-25 07:06:00,76.6,73.4,29.96,ESE,106,2.0,7.0,90,0.00,,,0.00,meteohub,2013-06-25 12:06:00,
2013-06-25 07:11:00,76.8,73.6,29.96,South,191,0.0,9.0,90,0.00,,,0.00,meteohub,2013-06-25 12:11:00,
2013-06-25 07:16:00,76.8,73.4,29.96,South,171,0.0,9.0,89,0.00,,,0.00,meteohub,2013-06-25 12:16:00,
2013-06-25 07:21:00,76.8,73.6,29.97,SSE,152,3.0,9.0,90,0.00,,,0.00,meteohub,2013-06-25 12:21:00,
2013-06-25 07:26:00,77.0,73.6,29.97,SSE,148,1.0,10.0,89,0.00,,,0.00,meteohub,2013-06-25 12:26:00,
2013-06-25 07:31:00,77.2,73.8,29.97,South,169,0.0,10.0,89,0.00,,,0.00,meteohub,2013-06-25 12:31:00,
2013-06-25 07:36:00,77.4,73.9,29.97,SW,221,3.0,10.0,89,0.00,,,0.00,meteohub,2013-06-25 12:36:00,
2013-06-25 07:41:00,77.4,73.9,29.98,South,182,0.0,8.0,89,0.00,,,0.00,meteohub,2013-06-25 12:41:00,
2013-06-25 07:46:00,77.5,73.8,29.98,South,175,2.0,8.0,88,0.00,,,0.00,meteohub,2013-06-25 12:46:00,
2013-06-25 07:51:00,77.9,74.1,29.98,SSW,203,4.0,8.0,88,0.00,,,0.00,meteohub,2013-06-25 12:51:00,
2013-06-25 07:56:00,78.3,74.5,29.99,SW,230,1.0,8.0,88,0.00,,,0.00,meteohub,2013-06-25 12:56:00,
2013-06-25 08:01:00,78.4,74.3,29.99,SW,218,3.0,8.0,87,0.00,,,0.00,meteohub,2013-06-25 13:01:00,
2013-06-25 08:06:00,78.4,73.9,29.99,South,171,2.0,8.0,86,0.00,,,0.00,meteohub,2013-06-25 13:06:00,
2013-06-25 08:11:00,78.6,74.1,29.99,SW,231,0.0,8.0,86,0.00,,,0.00,meteohub,2013-06-25 13:11:00,
2013-06-25 08:16:00,79.2,74.7,29.99,SW,221,3.0,8.0,86,0.00,,,0.00,meteohub,2013-06-25 13:16:00,
2013-06-25 08:22:00,79.9,75.0,29.99,WNW,288,2.0,7.0,85,0.00,,,0.00,meteohub,2013-06-25 13:22:00,
2013-06-25 08:27:00,80.2,75.0,29.99,SSE,160,1.0,9.0,84,0.00,,,0.00,meteohub,2013-06-25 13:27:00,
2013-06-25 08:32:00,80.8,75.6,29.99,ENE,76,2.0,9.0,84,0.00,,,0.00,meteohub,2013-06-25 13:32:00,
2013-06-25 08:37:00,81.1,75.2,29.99,SE,139,2.0,8.0,82,0.00,,,0.00,meteohub,2013-06-25 13:37:00,
2013-06-25 08:42:00,81.9,75.4,29.99,SSW,196,2.0,6.0,81,0.00,,,0.00,meteohub,2013-06-25 13:42:00,
2013-06-25 08:47:00,82.6,75.0,29.99,South,182,3.0,6.0,78,0.00,,,0.00,meteohub,2013-06-25 13:47:00,
2013-06-25 08:52:00,82.9,75.4,29.99,South,175,2.0,9.0,78,0.00,,,0.00,meteohub,2013-06-25 13:52:00,
2013-06-25 08:57:00,82.9,75.0,29.99,WSW,240,1.0,10.0,77,0.00,,,0.00,meteohub,2013-06-25 13:57:00,
2013-06-25 09:02:00,83.1,75.6,29.99,SW,234,1.0,10.0,78,0.00,,,0.00,meteohub,2013-06-25 14:02:00,
2013-06-25 09:07:00,83.3,74.5,29.99,SE,146,1.0,7.0,75,0.00,,,0.00,meteohub,2013-06-25 14:07:00,
2013-06-25 09:12:00,82.9,74.7,29.99,SSW,206,2.0,11.0,76,0.00,,,0.00,meteohub,2013-06-25 14:12:00,
2013-06-25 09:17:00,82.9,74.7,29.99,West,263,5.0,11.0,76,0.00,,,0.00,meteohub,2013-06-25 14:17:00,
2013-06-25 09:22:00,82.9,75.0,29.99,NW,307,3.0,11.0,77,0.00,,,0.00,meteohub,2013-06-25 14:22:00,
2013-06-25 09:27:00,83.3,75.4,29.99,WSW,252,2.0,9.0,77,0.00,,,0.00,meteohub,2013-06-25 14:27:00,
2013-06-25 09:32:00,84.6,76.1,29.99,WSW,244,1.0,9.0,76,0.00,,,0.00,meteohub,2013-06-25 14:32:00,
2013-06-25 09:37:00,85.3,75.6,29.99,WSW,257,3.0,9.0,73,0.00,,,0.00,meteohub,2013-06-25 14:37:00,
2013-06-25 09:42:00,85.3,75.6,29.99,SW,221,6.0,7.0,73,0.00,,,0.00,meteohub,2013-06-25 14:42:00,
2013-06-25 09:47:00,85.5,74.5,29.99,SSE,163,4.0,10.0,70,0.00,,,0.00,meteohub,2013-06-25 14:47:00,
2013-06-25 09:52:00,85.3,74.3,29.99,SSW,213,4.0,10.0,70,0.00,,,0.00,meteohub,2013-06-25 14:52:00,
2013-06-25 09:57:00,85.5,75.7,29.99,WSW,248,6.0,10.0,73,0.00,,,0.00,meteohub,2013-06-25 14:57:00,
2013-06-25 10:02:00,86.2,75.7,29.99,SSE,162,1.0,10.0,71,0.00,,,0.00,meteohub,2013-06-25 15:02:00,
2013-06-25 10:07:00,86.9,75.6,29.98,South,190,3.0,9.0,69,0.00,,,0.00,meteohub,2013-06-25 15:07:00,
2013-06-25 10:12:00,87.1,75.2,29.98,SSW,201,2.0,8.0,68,0.00,,,0.00,meteohub,2013-06-25 15:12:00,
2013-06-25 10:17:00,87.1,75.7,29.98,SE,126,1.0,7.0,69,0.00,,,0.00,meteohub,2013-06-25 15:17:00,
2013-06-25 10:22:00,87.6,75.4,29.98,SSW,206,3.0,17.0,67,0.00,,,0.00,meteohub,2013-06-25 15:22:00,
2013-06-25 10:27:00,88.2,75.4,29.98,SW,236,5.0,17.0,66,0.00,,,0.00,meteohub,2013-06-25 15:27:00,
2013-06-25 10:32:00,88.5,75.2,29.98,SW,216,2.0,17.0,65,0.00,,,0.00,meteohub,2013-06-25 15:32:00,
2013-06-25 10:37:00,88.2,74.5,29.97,SSE,155,4.0,14.0,64,0.00,,,0.00,meteohub,2013-06-25 15:37:00,
2013-06-25 10:42:00,87.4,75.9,29.97,West,281,5.0,11.0,69,0.00,,,0.00,meteohub,2013-06-25 15:42:00,
2013-06-25 10:47:00,87.4,75.6,29.97,SE,134,0.0,10.0,68,0.00,,,0.00,meteohub,2013-06-25 15:47:00,
2013-06-25 10:52:00,87.6,74.8,29.97,West,262,2.0,10.0,66,0.00,,,0.00,meteohub,2013-06-25 15:52:00,
2013-06-25 10:57:00,88.0,75.2,29.97,SE,146,5.0,10.0,66,0.00,,,0.00,meteohub,2013-06-25 15:57:00,
2013-06-25 11:03:00,88.5,75.2,29.96,SSW,205,0.0,12.0,65,0.00,,,0.00,meteohub,2013-06-25 16:03:00,
2013-06-25 11:08:00,89.4,75.2,29.96,ESE,104,7.0,12.0,63,0.00,,,0.00,meteohub,2013-06-25 16:08:00,
2013-06-25 11:13:00,89.4,74.7,29.96,SW,231,4.0,10.0,62,0.00,,,0.00,meteohub,2013-06-25 16:13:00,
2013-06-25 11:18:00,89.4,75.2,29.96,SSW,196,2.0,11.0,63,0.00,,,0.00,meteohub,2013-06-25 16:18:00,
2013-06-25 11:23:00,90.0,76.1,29.96,SSW,202,2.0,11.0,64,0.00,,,0.00,meteohub,2013-06-25 16:23:00,
2013-06-25 11:28:00,90.0,73.8,29.96,SSE,157,9.0,10.0,59,0.00,,,0.00,meteohub,2013-06-25 16:28:00,
2013-06-25 11:33:00,90.3,75.9,29.96,South,176,4.0,16.0,63,0.00,,,0.00,meteohub,2013-06-25 16:33:00,
2013-06-25 11:38:00,91.0,75.7,29.96,South,191,1.0,16.0,61,0.00,,,0.00,meteohub,2013-06-25 16:38:00,
2013-06-25 11:43:00,91.2,74.3,29.96,South,189,3.0,12.0,58,0.00,,,0.00,meteohub,2013-06-25 16:43:00,
2013-06-25 11:48:00,91.4,75.0,29.96,South,171,2.0,14.0,59,0.00,,,0.00,meteohub,2013-06-25 16:48:00,
2013-06-25 11:53:00,91.6,75.2,29.96,SW,219,4.0,14.0,59,0.00,,,0.00,meteohub,2013-06-25 16:53:00,
2013-06-25 11:58:00,92.1,74.7,29.96,ESE,111,5.0,11.0,57,0.00,,,0.00,meteohub,2013-06-25 16:58:00,
2013-06-25 12:03:00,92.5,74.5,29.96,South,178,4.0,12.0,56,0.00,,,0.00,meteohub,2013-06-25 17:03:00,
2013-06-25 12:08:00,92.5,74.5,29.96,NE,48,2.0,12.0,56,0.00,,,0.00,meteohub,2013-06-25 17:08:00,
2013-06-25 12:13:00,92.1,74.7,29.96,SSW,205,8.0,12.0,57,0.00,,,0.00,meteohub,2013-06-25 17:13:00,
2013-06-25 12:18:00,92.3,74.3,29.96,SSW,204,2.0,11.0,56,0.00,,,0.00,meteohub,2013-06-25 17:18:00,
2013-06-25 12:23:00,92.5,73.9,29.95,South,175,1.0,10.0,55,0.00,,,0.00,meteohub,2013-06-25 17:23:00,
2013-06-25 12:28:00,91.9,74.5,29.95,South,190,5.0,10.0,57,0.00,,,0.00,meteohub,2013-06-25 17:28:00,
2013-06-25 12:33:00,91.9,73.9,29.95,South,182,3.0,10.0,56,0.00,,,0.00,meteohub,2013-06-25 17:33:00,
2013-06-25 12:38:00,92.5,74.5,29.95,East,93,1.0,10.0,56,0.00,,,0.00,meteohub,2013-06-25 17:38:00,
2013-06-25 12:43:00,92.8,74.8,29.95,SSE,159,1.0,10.0,56,0.00,,,0.00,meteohub,2013-06-25 17:43:00,
2013-06-25 12:48:00,93.0,74.5,29.94,SW,235,2.0,10.0,55,0.00,,,0.00,meteohub,2013-06-25 17:48:00,
2013-06-25 12:53:00,92.8,74.3,29.94,SW,215,4.0,10.0,55,0.00,,,0.00,meteohub,2013-06-25 17:53:00,
2013-06-25 12:58:00,92.5,74.5,29.94,SSE,150,0.0,9.0,56,0.00,,,0.00,meteohub,2013-06-25 17:58:00,
2013-06-25 13:03:00,92.3,74.3,29.94,South,186,15.0,15.0,56,0.00,,,0.00,meteohub,2013-06-25 18:03:00,
2013-06-25 13:08:00,92.3,74.8,29.94,East,98,13.0,15.0,57,0.00,,,0.00,meteohub,2013-06-25 18:08:00,
2013-06-25 13:13:00,92.5,75.0,29.94,SE,134,4.0,15.0,57,0.00,,,0.00,meteohub,2013-06-25 18:13:00,
2013-06-25 13:18:00,92.7,74.7,29.94,SSW,205,4.0,15.0,56,0.00,,,0.00,meteohub,2013-06-25 18:18:00,
2013-06-25 13:23:00,92.7,75.2,29.94,SSE,149,10.0,13.0,57,0.00,,,0.00,meteohub,2013-06-25 18:23:00,
2013-06-25 13:28:00,92.7,73.6,29.93,South,178,3.0,12.0,54,0.00,,,0.00,meteohub,2013-06-25 18:28:00,
2013-06-25 13:33:00,92.7,74.7,29.93,SW,227,1.0,12.0,56,0.00,,,0.00,meteohub,2013-06-25 18:33:00,
2013-06-25 13:38:00,92.8,74.3,29.93,WSW,257,1.0,14.0,55,0.00,,,0.00,meteohub,2013-06-25 18:38:00,
2013-06-25 13:43:00,92.8,73.8,29.92,SSW,213,4.0,14.0,54,0.00,,,0.00,meteohub,2013-06-25 18:43:00,
2013-06-25 13:48:00,92.8,74.3,29.92,SSE,149,6.0,12.0,55,0.00,,,0.00,meteohub,2013-06-25 18:48:00,
2013-06-25 13:53:00,93.4,74.8,29.92,WSW,256,2.0,12.0,55,0.00,,,0.00,meteohub,2013-06-25 18:53:00,
2013-06-25 13:58:00,93.7,73.4,29.91,North,349,2.0,11.0,52,0.00,,,0.00,meteohub,2013-06-25 18:58:00,
2013-06-25 14:03:00,94.3,74.5,29.91,SSE,151,3.0,9.0,53,0.00,,,0.00,meteohub,2013-06-25 19:03:00,
2013-06-25 14:08:00,94.6,74.8,29.91,SE,144,6.0,10.0,53,0.00,,,0.00,meteohub,2013-06-25 19:08:00,
2013-06-25 14:14:00,95.0,73.9,29.91,South,173,2.0,10.0,51,0.00,,,0.00,meteohub,2013-06-25 19:14:00,
2013-06-25 14:19:00,94.6,73.8,29.91,SE,130,5.0,10.0,51,0.00,,,0.00,meteohub,2013-06-25 19:19:00,
2013-06-25 14:24:00,94.5,74.7,29.91,SE,139,7.0,10.0,53,0.00,,,0.00,meteohub,2013-06-25 19:24:00,
2013-06-25 14:29:00,94.5,74.7,29.91,South,190,3.0,10.0,53,0.00,,,0.00,meteohub,2013-06-25 19:29:00,
2013-06-25 14:34:00,94.3,73.9,29.91,SSW,197,5.0,10.0,52,0.00,,,0.00,meteohub,2013-06-25 19:34:00,
2013-06-25 14:39:00,94.3,74.5,29.91,South,183,2.0,10.0,53,0.00,,,0.00,meteohub,2013-06-25 19:39:00,
2013-06-25 14:44:00,94.1,74.8,29.90,SSE,150,1.0,10.0,54,0.00,,,0.00,meteohub,2013-06-25 19:44:00,
2013-06-25 14:49:00,94.3,75.6,29.90,SSE,162,3.0,9.0,55,0.00,,,0.00,meteohub,2013-06-25 19:49:00,
2013-06-25 14:54:00,94.5,75.2,29.90,ESE,121,1.0,12.0,54,0.00,,,0.00,meteohub,2013-06-25 19:54:00,
2013-06-25 14:59:00,94.5,72.9,29.90,ESE,112,5.0,12.0,50,0.00,,,0.00,meteohub,2013-06-25 19:59:00,
2013-06-25 15:04:00,94.5,73.6,29.90,ESE,123,5.0,13.0,51,0.00,,,0.00,meteohub,2013-06-25 20:04:00,
2013-06-25 15:09:00,94.6,73.8,29.89,SE,146,1.0,13.0,51,0.00,,,0.00,meteohub,2013-06-25 20:09:00,
2013-06-25 15:14:00,94.8,73.2,29.89,SSE,153,4.0,13.0,50,0.00,,,0.00,meteohub,2013-06-25 20:14:00,
2013-06-25 15:19:00,95.0,73.9,29.90,South,174,4.0,11.0,51,0.00,,,0.00,meteohub,2013-06-25 20:19:00,
2013-06-25 15:24:00,95.2,74.1,29.89,SSW,192,1.0,11.0,51,0.00,,,0.00,meteohub,2013-06-25 20:24:00,
2013-06-25 15:29:00,95.4,73.8,29.89,SE,137,4.0,10.0,50,0.00,,,0.00,meteohub,2013-06-25 20:29:00,
2013-06-25 15:34:00,95.5,73.4,29.89,SSE,167,5.0,9.0,49,0.00,,,0.00,meteohub,2013-06-25 20:34:00,
2013-06-25 15:39:00,95.9,74.3,29.89,South,175,3.0,10.0,50,0.00,,,0.00,meteohub,2013-06-25 20:39:00,
2013-06-25 15:44:00,95.7,72.9,29.89,SSE,159,2.0,10.0,48,0.00,,,0.00,meteohub,2013-06-25 20:44:00,
2013-06-25 15:49:00,96.1,74.5,29.89,South,177,4.0,12.0,50,0.00,,,0.00,meteohub,2013-06-25 20:49:00,
2013-06-25 15:54:00,96.4,74.8,29.89,SSW,199,2.0,12.0,50,0.00,,,0.00,meteohub,2013-06-25 20:54:00,
2013-06-25 15:59:00,96.4,72.9,29.88,SSE,155,10.0,12.0,47,0.00,,,0.00,meteohub,2013-06-25 20:59:00,
2013-06-25 16:04:00,95.9,71.8,29.88,SSE,159,6.0,11.0,46,0.00,,,0.00,meteohub,2013-06-25 21:04:00,
2013-06-25 16:09:00,95.4,71.2,29.88,East,80,14.0,15.0,46,0.00,,,0.00,meteohub,2013-06-25 21:09:00,
2013-06-25 16:14:00,94.6,71.2,29.88,ESE,103,3.0,15.0,47,0.00,,,0.00,meteohub,2013-06-25 21:14:00,
2013-06-25 16:19:00,94.5,73.6,29.88,SE,146,4.0,15.0,51,0.00,,,0.00,meteohub,2013-06-25 21:19:00,
2013-06-25 16:20:00,94.5,72.3,29.88,SE,125,3.0,14.0,49,0.00,,,0.00,meteohub,2013-06-25 21:20:00,
2013-06-25 16:25:00,94.8,72.1,29.88,NNW,344,0.0,13.0,48,0.00,,,0.00,meteohub,2013-06-25 21:25:00,
2013-06-25 16:30:00,95.4,72.0,29.87,SE,142,2.0,13.0,47,0.00,,,0.00,meteohub,2013-06-25 21:30:00,
2013-06-25 16:36:00,95.4,71.2,29.87,SSE,156,3.0,12.0,46,0.00,,,0.00,meteohub,2013-06-25 21:36:00,
2013-06-25 16:41:00,95.4,71.2,29.87,SSE,150,7.0,12.0,46,0.00,,,0.00,meteohub,2013-06-25 21:41:00,
2013-06-25 16:46:00,95.5,71.4,29.87,SSE,149,1.0,12.0,46,0.00,,,0.00,meteohub,2013-06-25 21:46:00,
2013-06-25 16:51:00,95.7,70.9,29.87,SE,136,7.0,12.0,45,0.00,,,0.00,meteohub,2013-06-25 21:51:00,
2013-06-25 16:56:00,95.9,71.1,29.87,South,189,1.0,12.0,45,0.00,,,0.00,meteohub,2013-06-25 21:56:00,
2013-06-25 17:01:00,96.1,72.5,29.87,South,171,1.0,12.0,47,0.00,,,0.00,meteohub,2013-06-25 22:01:00,
2013-06-25 17:06:00,96.3,71.4,29.86,SSE,162,7.0,12.0,45,0.00,,,0.00,meteohub,2013-06-25 22:06:00,
2013-06-25 17:11:00,96.1,71.2,29.86,SW,232,6.0,11.0,45,0.00,,,0.00,meteohub,2013-06-25 22:11:00,
2013-06-25 17:16:00,95.9,71.8,29.86,SSE,150,2.0,11.0,46,0.00,,,0.00,meteohub,2013-06-25 22:16:00,
2013-06-25 17:21:00,96.3,72.7,29.86,SSE,167,2.0,11.0,47,0.00,,,0.00,meteohub,2013-06-25 22:21:00,
2013-06-25 17:26:00,96.4,71.6,29.86,SSW,193,3.0,11.0,45,0.00,,,0.00,meteohub,2013-06-25 22:26:00,
2013-06-25 17:31:00,96.1,71.2,29.86,SW,216,1.0,12.0,45,0.00,,,0.00,meteohub,2013-06-25 22:31:00,
2013-06-25 17:36:00,95.5,72.1,29.85,South,191,4.0,12.0,47,0.00,,,0.00,meteohub,2013-06-25 22:36:00,
2013-06-25 17:41:00,95.2,71.1,29.85,SE,127,3.0,9.0,46,0.00,,,0.00,meteohub,2013-06-25 22:41:00,
2013-06-25 17:46:00,95.4,71.2,29.85,SSE,149,4.0,9.0,46,0.00,,,0.00,meteohub,2013-06-25 22:46:00,
2013-06-25 17:51:00,95.2,70.5,29.85,WSW,257,2.0,11.0,45,0.00,,,0.00,meteohub,2013-06-25 22:51:00,
2013-06-25 17:56:00,95.4,70.7,29.85,SSE,156,2.0,11.0,45,0.00,,,0.00,meteohub,2013-06-25 22:56:00,
2013-06-25 18:02:00,95.4,71.2,29.85,SSE,164,1.0,12.0,46,0.00,,,0.00,meteohub,2013-06-25 23:02:00,
2013-06-25 18:07:00,95.4,71.2,29.84,East,88,2.0,12.0,46,0.00,,,0.00,meteohub,2013-06-25 23:07:00,
2013-06-25 18:12:00,95.4,70.7,29.84,SE,144,4.0,12.0,45,0.00,,,0.00,meteohub,2013-06-25 23:12:00,
2013-06-25 18:17:00,95.2,71.8,29.84,SSE,153,4.0,14.0,47,0.00,,,0.00,meteohub,2013-06-25 23:17:00,
2013-06-25 18:22:00,95.0,72.9,29.84,ESE,115,4.0,15.0,49,0.00,,,0.00,meteohub,2013-06-25 23:22:00,
2013-06-25 18:27:00,94.6,73.0,29.84,ESE,115,3.0,15.0,50,0.00,,,0.00,meteohub,2013-06-25 23:27:00,
2013-06-25 18:32:00,94.5,74.1,29.83,ESE,117,9.0,9.0,52,0.00,,,0.00,meteohub,2013-06-25 23:32:00,
2013-06-25 18:37:00,94.3,73.9,29.83,SSE,148,2.0,9.0,52,0.00,,,0.00,meteohub,2013-06-25 23:37:00,
2013-06-25 18:42:00,93.9,73.6,29.83,SE,142,0.0,9.0,52,0.00,,,0.00,meteohub,2013-06-25 23:42:00,
2013-06-25 18:47:00,93.6,73.2,29.83,ENE,74,1.0,9.0,52,0.00,,,0.00,meteohub,2013-06-25 23:47:00,
2013-06-25 18:52:00,93.6,73.2,29.83,SW,214,1.0,9.0,52,0.00,,,0.00,meteohub,2013-06-25 23:52:00,
2013-06-25 18:57:00,93.2,72.9,29.83,ENE,68,5.0,10.0,52,0.00,,,0.00,meteohub,2013-06-25 23:57:00,
2013-06-25 19:02:00,93.0,72.9,29.83,ESE,123,4.0,14.0,52,0.00,,,0.00,meteohub,2013-06-26 00:02:00,
2013-06-25 19:07:00,92.8,73.8,29.83,SSE,152,6.0,14.0,54,0.00,,,0.00,meteohub,2013-06-26 00:07:00,
2013-06-25 19:12:00,92.5,73.4,29.83,ESE,113,9.0,11.0,54,0.00,,,0.00,meteohub,2013-06-26 00:12:00,
2013-06-25 19:17:00,91.9,72.9,29.83,SSE,162,3.0,11.0,54,0.00,,,0.00,meteohub,2013-06-26 00:17:00,
2013-06-25 19:22:00,91.6,72.5,29.83,ESE,110,3.0,10.0,54,0.00,,,0.00,meteohub,2013-06-26 00:22:00,
2013-06-25 19:27:00,91.0,72.7,29.83,SE,135,3.0,9.0,55,0.00,,,0.00,meteohub,2013-06-26 00:27:00,
2013-06-25 19:32:00,90.9,72.5,29.83,SE,131,3.0,9.0,55,0.00,,,0.00,meteohub,2013-06-26 00:32:00,
2013-06-25 19:37:00,90.3,72.5,29.83,SSE,164,3.0,9.0,56,0.00,,,0.00,meteohub,2013-06-26 00:37:00,
2013-06-25 19:42:00,90.0,72.1,29.83,SSE,153,3.0,9.0,56,0.00,,,0.00,meteohub,2013-06-26 00:42:00,
2013-06-25 19:47:00,89.6,72.3,29.83,ESE,115,3.0,9.0,57,0.00,,,0.00,meteohub,2013-06-26 00:47:00,
2013-06-25 19:53:00,89.2,72.5,29.83,SE,131,1.0,7.0,58,0.00,,,0.00,meteohub,2013-06-26 00:53:00,
2013-06-25 19:58:00,89.1,72.3,29.83,ESE,121,0.0,7.0,58,0.00,,,0.00,meteohub,2013-06-26 00:58:00,
2013-06-25 20:03:00,88.9,72.7,29.83,SSE,161,7.0,7.0,59,0.00,,,0.00,meteohub,2013-06-26 01:03:00,
2013-06-25 20:08:00,88.5,72.3,29.83,South,182,4.0,9.0,59,0.00,,,0.00,meteohub,2013-06-26 01:08:00,
2013-06-25 20:13:00,88.3,72.7,29.83,SE,132,0.0,9.0,60,0.00,,,0.00,meteohub,2013-06-26 01:13:00,
2013-06-25 20:18:00,88.2,72.5,29.83,SE,146,3.0,9.0,60,0.00,,,0.00,meteohub,2013-06-26 01:18:00,
2013-06-25 20:23:00,87.8,72.1,29.83,SE,124,2.0,8.0,60,0.00,,,0.00,meteohub,2013-06-26 01:23:00,
2013-06-25 20:28:00,87.6,72.0,29.83,SSE,148,2.0,8.0,60,0.00,,,0.00,meteohub,2013-06-26 01:28:00,
2013-06-25 20:33:00,87.4,72.3,29.83,SE,142,5.0,7.0,61,0.00,,,0.00,meteohub,2013-06-26 01:33:00,
2013-06-25 20:38:00,87.3,72.1,29.83,SE,126,1.0,7.0,61,0.00,,,0.00,meteohub,2013-06-26 01:38:00,
2013-06-25 20:43:00,87.1,72.5,29.83,SE,140,1.0,7.0,62,0.00,,,0.00,meteohub,2013-06-26 01:43:00,
2013-06-25 20:48:00,86.7,72.1,29.83,SE,132,3.0,8.0,62,0.00,,,0.00,meteohub,2013-06-26 01:48:00,
2013-06-25 20:53:00,86.5,72.0,29.83,South,175,0.0,8.0,62,0.00,,,0.00,meteohub,2013-06-26 01:53:00,
2013-06-25 20:58:00,86.4,72.3,29.83,SE,128,0.0,8.0,63,0.00,,,0.00,meteohub,2013-06-26 01:58:00,
2013-06-25 21:03:00,86.2,72.1,29.83,SE,130,3.0,6.0,63,0.00,,,0.00,meteohub,2013-06-26 02:03:00,
2013-06-25 21:08:00,86.0,72.0,29.83,SE,144,2.0,6.0,63,0.00,,,0.00,meteohub,2013-06-26 02:08:00,
2013-06-25 21:13:00,85.8,71.8,29.83,SE,138,3.0,9.0,63,0.00,,,0.00,meteohub,2013-06-26 02:13:00,
2013-06-25 21:18:00,85.8,71.8,29.83,SE,128,3.0,9.0,63,0.00,,,0.00,meteohub,2013-06-26 02:18:00,
2013-06-25 21:24:00,85.6,72.1,29.83,SE,124,4.0,9.0,64,0.00,,,0.00,meteohub,2013-06-26 02:24:00,
2013-06-25 21:29:00,85.6,72.1,29.83,East,96,6.0,8.0,64,0.00,,,0.00,meteohub,2013-06-26 02:29:00,
2013-06-25 21:34:00,85.6,72.5,29.83,SE,139,4.0,8.0,65,0.00,,,0.00,meteohub,2013-06-26 02:34:00,
2013-06-25 21:39:00,85.5,72.3,29.84,ESE,107,1.0,9.0,65,0.00,,,0.00,meteohub,2013-06-26 02:39:00,
2013-06-25 21:44:00,85.5,72.9,29.84,SSE,152,3.0,9.0,66,0.00,,,0.00,meteohub,2013-06-26 02:44:00,
2013-06-25 21:49:00,85.5,72.9,29.84,SE,142,3.0,10.0,66,0.00,,,0.00,meteohub,2013-06-26 02:49:00,
2013-06-25 21:54:00,85.5,73.2,29.84,SSE,159,1.0,10.0,67,0.00,,,0.00,meteohub,2013-06-26 02:54:00,
2013-06-25 21:59:00,85.3,73.0,29.83,SSE,148,1.0,11.0,67,0.00,,,0.00,meteohub,2013-06-26 02:59:00,
2013-06-25 22:04:00,85.3,73.6,29.84,SSE,152,3.0,11.0,68,0.00,,,0.00,meteohub,2013-06-26 03:04:00,
2013-06-25 22:09:00,85.3,73.6,29.84,South,175,1.0,11.0,68,0.00,,,0.00,meteohub,2013-06-26 03:09:00,
2013-06-25 22:14:00,85.1,73.4,29.84,East,92,1.0,10.0,68,0.00,,,0.00,meteohub,2013-06-26 03:14:00,
2013-06-25 22:19:00,84.9,73.6,29.84,SE,143,5.0,10.0,69,0.00,,,0.00,meteohub,2013-06-26 03:19:00,
2013-06-25 22:24:00,84.9,73.6,29.84,SE,127,3.0,10.0,69,0.00,,,0.00,meteohub,2013-06-26 03:24:00,
2013-06-25 22:29:00,84.7,73.4,29.84,South,188,2.0,12.0,69,0.00,,,0.00,meteohub,2013-06-26 03:29:00,
2013-06-25 22:34:00,84.7,73.9,29.84,SE,135,1.0,12.0,70,0.00,,,0.00,meteohub,2013-06-26 03:34:00,
2013-06-25 22:39:00,84.7,73.9,29.85,South,182,3.0,12.0,70,0.00,,,0.00,meteohub,2013-06-26 03:39:00,
2013-06-25 22:44:00,84.6,73.8,29.84,SSE,152,11.0,11.0,70,0.00,,,0.00,meteohub,2013-06-26 03:44:00,
2013-06-25 22:49:00,84.6,74.1,29.85,South,176,3.0,11.0,71,0.00,,,0.00,meteohub,2013-06-26 03:49:00,
2013-06-25 22:54:00,84.6,74.1,29.85,SSE,151,2.0,11.0,71,0.00,,,0.00,meteohub,2013-06-26 03:54:00,
2013-06-25 22:59:00,84.4,73.9,29.85,ESE,115,1.0,11.0,71,0.00,,,0.00,meteohub,2013-06-26 03:59:00,
2013-06-25 23:01:00,84.4,73.9,29.85,East,93,2.0,10.0,71,0.00,,,0.00,meteohub,2013-06-26 04:01:00,
2013-06-25 23:02:00,84.4,73.9,29.85,SE,137,4.0,10.0,71,0.00,,,0.00,meteohub,2013-06-26 04:02:00,
2013-06-25 23:07:00,84.2,74.1,29.85,South,178,5.0,9.0,72,0.00,,,0.00,meteohub,2013-06-26 04:07:00,
2013-06-25 23:12:00,84.0,73.9,29.86,SSW,204,2.0,9.0,72,0.00,,,0.00,meteohub,2013-06-26 04:12:00,
2013-06-25 23:17:00,84.0,74.5,29.86,SSE,155,1.0,8.0,73,0.00,,,0.00,meteohub,2013-06-26 04:17:00,
2013-06-25 23:22:00,83.8,74.3,29.86,SSE,152,4.0,8.0,73,0.00,,,0.00,meteohub,2013-06-26 04:22:00,
2013-06-25 23:27:00,83.8,74.7,29.86,SSE,155,4.0,8.0,74,0.00,,,0.00,meteohub,2013-06-26 04:27:00,
2013-06-25 23:32:00,83.7,74.5,29.86,SE,143,3.0,9.0,74,0.00,,,0.00,meteohub,2013-06-26 04:32:00,
2013-06-25 23:37:00,83.7,74.5,29.86,SSW,202,4.0,9.0,74,0.00,,,0.00,meteohub,2013-06-26 04:37:00,
2013-06-25 23:42:00,83.7,74.8,29.86,South,188,2.0,9.0,75,0.00,,,0.00,meteohub,2013-06-26 04:42:00,
2013-06-25 23:47:00,83.5,74.7,29.86,SSE,147,3.0,9.0,75,0.00,,,0.00,meteohub,2013-06-26 04:47:00,
2013-06-25 23:52:00,83.3,74.5,29.86,SE,146,3.0,9.0,75,0.00,,,0.00,meteohub,2013-06-26 04:52:00,
2013-06-25 23:58:00,83.3,75.0,29.86,SE,139,1.0,11.0,76,0.00,,,0.00,meteohub,2013-06-26 04:58:00,